Location: 10033 Water Well
(34.0865°N, 106.8959°W)
Time: 21:43:41
(UTC+00:00)

Meteor 2-13 Rocket - Pass Details

Date: 13 January 2026
Orbit: 935 x 958 km, 82.5° (Epoch: 10 February)

Event Time Altitude Azimuth Distance (km) Brightness Sun altitude
Rises 01:12:30 0° 175° (S) 3,616 7.7 -11.1°
Reaches altitude 10° 01:15:01 10° 171° (S) 2,676 6.9 -11.6°
Maximum altitude 01:21:02 61° 93° (E) 1,082 4.5 -12.8°
Drops below altitude 10° 01:27:05 10° 15° (NNE) 2,694 6.5 -14.0°
Sets 01:29:37 0° 12° (NNE) 3,642 7.2 -14.5°
